Temp
16 16 16 16 16 17 17 17 17 17 17 17 17 16 16 16 16 15 15 15 15 15 15 16 16 16 16 16 16 16 16 16 16 16 16 16 16 16 15 15 15 15 15 15 15 15 15 14 14 14 14 14 14 14 14 14 14 14 14 15 15 15 15 14 14 14 14 14 14
16 16 16 16 16 16 17 17 17 17 17 17 16 16 16 16 16 16 15 15 15 16 16 16 16 16 16 16 16 16 17 16 16 16 16 16 16 15 15 15 15 15 14 14 14 14 14 14 14 14 14 14 14 13 13 13 13 13 13 14 14 14 14 14 14 14 14 14 14
15 15 15 15 15 16 16 16 16 16 16 16 16 16 16 16 16 16 16 16 16 16 16 16 16 16 16 16 16 17 17 17 16 16 16 16 15 15 15 15 14 14 14 14 14 14 14 14 14 14 14 14 14 14 14 13 13 13 13 13 13 13 13 14 14 15 15 15 15
15 14 14 15 15 15 16 16 16 16 16 16 16 16 16 16 16 16 16 16 16 16 16 16 16 16 16 16 16 17 17 17 16 16 16 15 15 15 15 15 15 15 14 14 14 14 14 14 14 14 14 14 14 14 14 14 14 14 14 14 13 13 14 14 14 15 15 15 15
14 14 14 14 15 15 15 15 15 16 16 16 16 16 16 16 16 16 16 16 16 16 15 15 15 15 15 16 16 16 16 16 16 16 15 15 15 15 15 15 15 15 15 14 14 14 14 14 14 14 14 14 14 14 14 14 14 14 14 14 14 14 14 14 14 15 15 15 15
14 14 14 14 15 15 15 15 15 15 16 16 16 16 16 16 16 15 15 15 15 15 15 15 15 15 15 16 16 16 16 15 15 15 15 15 15 15 15 15 15 15 15 14 14 14 14 14 14 14 14 14 14 14 13 13 13 13 13 13 13 13 14 14 14 14 14 14 14
14 14 14 14 15 15 14 14 15 15 16 16 16 16 16 15 15 15 15 15 15 15 15 15 15 15 15 16 16 15 15 15 15 15 15 15 15 15 15 15 15 14 14 14 14 14 13 13 13 13 13 13 13 13 13 13 13 13 13 13 13 13 13 13 14 14 14 14 14
13 14 14 14 14 14 14 14 15 15 15 15 15 15 15 15 15 15 15 15 15 15 15 15 15 15 15 15 15 15 15 14 14 14 14 15 15 15 14 14 14 14 14 13 13 13 13 13 13 13 13 13 13 13 13 13 13 13 13 13 13 13 13 13 13 13 13 13 14
13 13 13 14 14 14 14 14 14 15 15 15 15 15 15 15 15 15 15 15 15 15 15 15 15 15 15 15 15 15 14 14 14 14 14 14 14 14 14 14 14 14 13 13 13 13 13 13 13 13 13 13 13 13 12 12 12 12 12 12 13 13 13 13 13 13 13 13 13
13 13 13 13 13 14 14 14 14 15 15 15 15 15 15 15 15 15 15 15 14 14 14 14 14 14 14 14 14 14 14 14 14 14 14 14 14 14 14 14 13 13 13 13 13 13 13 13 12 12 12 12 12 11 11 11 11 12 12 12 12 12 13 13 12 12 12 12 12
13 13 13 13 13 13 13 13 14 14 15 15 15 15 15 15 14 14 14 14 14 14 14 14 14 14 14 14 14 14 14 13 13 13 14 14 14 14 13 13 13 13 12 12 12 12 12 12 11 11 11 11 11 11 11 11 11 11 11 11 11 11 11 12 11 11 11 11 11
13 13 13 13 13 12 12 13 14 14 14 14 14 14 14 14 14 14 14 14 14 14 13 13 13 13 13 13 13 13 13 13 13 13 13 13 13 13 12 12 12 12 12 11 11 11 11 11 11 11 10 10 10 10 10 10 10 10 10 10 10 10 10 10 11 10 10 10 10
13 13 13 13 12 12 12 13 14 14 14 14 14 14 14 14 13 13 13 13 13 13 12 12 12 12 12 12 12 12 12 12 12 12 12 12 12 12 12 12 11 11 11 11 11 11 11 10 10 10 10 10 10 10 9 9 9 9 9 9 9 9 9 10 10 10 10 9 9
12 12 12 12 11 12 13 13 13 13 13 13 13 13 13 13 12 12 12 12 12 12 12 12 12 12 12 12 12 12 12 12 12 12 12 12 12 11 11 11 11 11 11 10 10 10 10 10 9 9 9 9 9 9 8 8 8 7 8 8 8 8 9 9 9 9 9 9 8
11 11 11 11 11 12 12 12 12 12 13 12 12 12 12 12 12 12 12 12 12 11 12 12 12 11 11 11 11 11 11 11 11 11 11 11 11 11 11 11 11 10 10 10 9 9 9 9 8 8 8 7 7 7 7 6 6 6 6 7 7 8 8 8 8 8 8 8 7
10 10 11 11 12 12 12 12 12 12 12 12 11 11 11 11 11 11 11 11 11 11 11 11 11 11 11 11 11 11 11 11 11 11 11 11 11 10 10 10 10 9 9 9 8 8 7 7 7 6 6 6 6 6 6 6 6 6 6 7 7 7 7 8 8 8 8 7 7
11 11 11 12 12 12 12 12 12 11 11 11 11 11 11 11 11 11 11 11 11 11 11 11 11 11 11 10 10 10 10 10 10 10 10 10 10 9 9 9 9 8 8 7 7 7 7 6 6 6 6 6 7 7 7 7 7 7 7 7 7 7 7 7 7 7 7 7 7
11 11 12 12 12 12 11 11 11 11 11 11 10 10 11 11 11 11 11 11 11 11 10 10 10 10 10 10 10 10 10 10 10 9 9 9 9 8 8 8 8 8 7 7 7 7 7 7 7 7 7 7 7 7 7 7 7 7 7 7 7 7 7 7 6 6 6 6 6
12 12 12 11 11 11 10 10 10 10 11 10 10 10 10 11 11 10 10 10 10 10 10 10 10 10 10 10 9 9 9 9 9 9 8 8 8 8 8 8 7 7 7 7 7 7 7 7 7 7 7 7 7 7 7 7 7 7 7 7 7 6 6 6 6 6 6 6 6
12 12 11 11 10 10 10 10 11 11 11 10 10 10 10 10 10 10 10 10 10 10 10 10 10 10 9 9 9 9 8 8 8 8 8 8 8 8 7 7 7 7 7 7 7 7 7 7 7 7 7 7 7 7 7 7 7 6 6 6 6 6 6 6 6 6 6 6 6
11 11 11 11 11 11 11 11 11 11 10 10 10 10 10 10 10 10 10 10 10 10 10 9 9 9 9 9 8 8 8 8 8 8 8 7 7 7 7 7 7 7 7 7 7 7 7 7 7 7 7 7 7 7 7 7 7 6 6 6 6 6 6 6 6 5 5 5 6
11 11 11 11 11 11 11 11 10 10 10 10 10 10 10 10 10 9 9 9 9 9 9 9 9 9 8 8 8 8 7 7 7 7 7 7 7 7 7 7 7 7 7 7 7 7 7 7 7 7 7 7 7 7 7 7 6 6 6 6 6 6 5 5 5 5 5 5 5
11 11 11 11 11 11 11 10 10 10 10 10 10 9 9 9 9 9 9 9 9 9 9 8 8 8 8 8 7 7 7 7 7 7 7 7 7 7 7 7 7 7 7 7 7 7 7 7 7 7 7 7 7 7 6 6 6 6 6 6 6 5 5 5 5 5 5 5 5
11 11 11 11 11 10 10 10 10 10 10 9 9 9 9 9 9 9 9 9 8 8 8 8 8 7 7 7 7 7 6 6 6 6 6 6 6 6 6 6 6 6 7 7 7 7 7 7 7 7 7 7 6 6 6 6 6 6 6 6 5 5 5 5 5 5 5 5 5
11 11 11 10 10 10 10 10 10 9 9 9 9 9 9 9 9 8 8 8 8 8 8 7 7 7 7 7 6 6 6 6 6 6 6 6 6 6 6 6 6 6 6 6 6 6 6 6 6 6 6 6 6 6 6 6 5 5 5 5 5 5 5 5 5 5 5 5 5
11 11 10 10 10 10 10 9 9 9 9 9 9 8 8 8 8 8 8 7 7 7 7 7 6 6 6 6 6 6 6 6 6 6 6 6 6 6 6 6 6 6 6 6 6 6 6 5 5 5 5 5 5 5 5 5 5 5 5 5 5 5 5 5 5 5 5 5 5
10 10 10 10 10 9 9 9 9 9 8 8 8 8 8 7 7 7 7 6 6 6 6 6 6 6 6 6 6 6 6 6 6 6 6 6 6 7 6 6 6 6 6 6 5 5 5 5 4 4 4 4 4 5 5 5 5 5 5 5 5 5 5 5 5 5 5 5 4
10 10 10 9 9 9 9 9 8 8 8 8 8 7 7 6 6 5 5 5 5 5 6 6 6 6 6 6 5 5 6 6 6 6 6 6 6 6 6 6 6 5 5 5 5 5 4 4 4 4 4 4 4 4 4 4 4 4 4 4 4 4 4 4 4 4 4 4 4
10 10 9 9 9 9 8 8 8 8 7 7 7 7 6 5 5 5 5 5 5 5 5 5 5 6 6 6 6 6 6 6 6 6 6 6 6 5 5 5 5 5 5 4 4 4 4 4 4 4 4 4 4 4 4 4 4 4 4 4 4 4 4 4 4 4 4 4 3
9 9 9 9 8 8 8 8 8 7 7 7 6 6 6 5 5 5 5 4 5 5 5 5 5 6 6 6 5 5 5 5 5 5 5 5 5 5 5 4 4 4 4 4 4 4 4 4 4 4 4 4 3 3 3 3 3 3 3 3 3 4 4 4 4 4 3 3 3
9 9 8 8 8 8 8 7 7 7 7 6 6 6 5 5 5 5 5 5 5 5 5 5 5 5 5 5 5 5 5 4 4 3 3 4 4 4 4 4 4 4 4 4 4 4 4 4 4 3 3 3 3 3 3 3 3 3 3 3 3 3 3 3 3 3 3 3 3
8 8 8 8 8 8 7 7 7 7 6 6 6 5 5 5 5 5 5 5 5 5 5 5 5 5 5 5 5 4 4 3 3 3 3 3 3 3 3 4 4 4 4 4 4 4 4 3 3 3 3 3 3 2 2 2 2 3 3 3 3 3 3 3 3 3 3 3 3
8 8 8 8 8 7 7 7 7 6 6 6 5 5 5 5 5 5 4 4 4 4 5 5 5 5 4 4 4 4 3 3 3 3 3 3 3 3 3 3 4 4 4 4 4 4 3 3 3 3 3 3 3 3 2 2 2 2 2 2 2 2 2 3 3 3 3 3 3
8 8 8 7 7 7 7 7 6 6 6 5 5 5 5 5 5 5 4 4 4 4 4 4 4 4 4 4 4 4 3 3 3 3 3 3 3 3 3 3 4 4 4 4 4 3 3 3 3 3 3 2 2 2 2 2 2 2 2 2 2 2 2 2 2 3 3 3 2
7 7 7 7 7 7 7 7 6 6 6 5 5 5 5 5 5 4 4 4 4 4 4 4 4 4 4 4 4 4 3 3 3 3 3 3 3 3 3 3 4 4 3 3 3 3 3 3 2 2 2 2 2 2 2 2 2 2 2 2 2 2 2 2 2 2 2 3 2
7 7 7 7 7 7 7 7 6 6 5 5 5 5 5 5 4 4 4 4 4 4 4 4 4 4 4 4 4 3 3 3 3 3 3 3 3 3 3 3 3 3 3 3 3 3 3 2 2 2 2 2 2 2 2 2 2 2 2 2 2 2 2 2 2 2 2 2 2
7 7 7 7 7 7 7 6 6 6 5 5 5 5 5 5 4 4 4 4 4 4 4 4 4 4 4 3 3 3 3 3 3 3 3 3 3 3 3 3 3 3 3 3 3 3 2 2 2 2 2 2 2 2 1 1 1 1 1 1 1 2 2 2 2 2 2 2 2
7 7 7 7 7 7 7 6 6 5 5 5 5 5 5 5 4 4 4 4 4 4 4 3 3 3 3 3 3 3 3 3 3 3 3 3 3 3 3 3 3 3 3 3 3 2 2 2 2 2 2 1 1 1 1 1 1 1 1 1 1 1 2 2 2 2 2 2 2
6 6 6 6 7 7 6 6 6 5 5 5 5 5 5 5 4 4 4 4 4 4 3 3 3 3 3 3 3 3 3 3 3 3 3 3 3 3 3 3 3 3 3 3 2 2 2 2 2 2 1 1 1 1 1 1 1 1 1 1 1 1 1 2 2 2 2 2 2
6 6 6 6 6 6 6 6 6 5 5 5 5 5 5 5 4 4 4 4 4 4 3 3 3 3 3 3 3 3 3 3 3 3 3 3 3 3 3 3 3 3 3 2 2 2 2 2 2 2 1 1 1 1 1 1 1 1 1 1 1 1 1 1 2 2 2 2 2
5 5 5 6 6 6 6 6 6 5 5 5 5 5 5 5 4 4 4 4 4 4 4 3 3 3 3 3 3 3 3 3 3 3 3 3 3 3 3 3 3 3 2 2 2 2 1 1 1 1 1 1 1 1 1 1 1 1 1 1 1 1 1 1 1 1 2 2 2
Height
781 781 782 783 783 784 785 787 788 789 790 792 793 794 795 797 798 798 799 800 801 801 802 802 803 803 804 804 804 805 806 807 808 808 810 810 811 812 813 814 814 815 816 816 817 818 818 819 820 820 821 821 821 822 822 823 823 822 821 820 820 820 821 822 823 824 825 826 826
780 781 781 782 783 784 785 786 787 788 789 791 792 794 795 796 797 798 799 800 800 801 801 802 803 803 803 803 804 804 805 806 807 808 809 810 811 812 813 813 814 815 815 816 817 818 818 819 820 820 821 821 821 822 823 823 824 824 824 822 821 820 821 821 822 823 824 824 824
780 781 783 783 784 784 784 785 786 787 789 790 792 793 794 795 797 798 798 799 800 800 801 802 802 803 803 803 803 804 804 805 806 807 808 810 811 812 813 813 814 815 815 816 817 817 818 819 819 820 820 820 820 821 822 822 823 824 825 825 824 823 822 822 822 823 823 823 823
780 782 784 784 785 785 784 785 786 787 788 789 791 792 794 795 796 797 798 799 799 800 801 801 802 802 802 803 803 803 804 805 806 807 808 809 810 811 812 813 814 814 815 816 816 817 818 818 819 819 819 819 820 820 820 821 822 822 823 824 825 824 822 821 821 821 821 821 821
780 782 783 784 785 784 784 785 787 788 788 788 790 791 793 794 796 796 797 798 799 799 800 801 801 801 802 802 803 803 804 805 806 807 808 809 810 811 812 812 813 814 815 815 816 817 817 818 818 819 819 819 819 819 819 820 820 821 821 822 823 822 820 819 819 819 819 819 819
779 781 782 782 783 783 784 786 788 788 787 788 789 791 792 794 795 796 797 797 798 799 800 800 801 801 801 802 802 803 804 805 806 807 807 808 809 810 811 812 813 813 814 815 815 816 816 817 818 818 818 818 819 819 819 819 819 819 820 820 821 820 818 818 818 818 818 818 818
779 780 780 780 780 782 784 787 788 787 787 787 788 790 791 793 794 795 796 797 798 798 799 800 800 800 801 801 802 803 804 805 806 806 807 808 808 809 810 811 812 813 813 814 815 815 815 816 816 817 817 817 818 818 817 817 817 818 818 818 818 817 817 816 816 816 816 816 816
780 779 779 779 779 781 783 786 787 786 786 787 788 789 791 792 793 795 795 796 797 798 799 799 800 800 801 801 802 803 804 805 806 806 807 807 808 808 809 810 811 812 813 813 813 814 814 815 815 815 815 816 816 816 816 817 817 817 816 816 816 815 815 815 815 815 815 814 814
780 779 778 779 780 781 783 785 786 785 786 786 787 789 790 792 793 794 795 796 797 798 798 799 800 800 801 801 802 802 803 804 805 806 806 807 807 808 809 810 810 811 812 812 813 813 813 813 813 814 814 815 815 815 815 816 815 815 815 814 814 814 814 814 814 814 814 813 813
779 778 778 779 780 782 783 784 785 785 785 786 787 788 789 791 792 793 795 796 796 797 798 799 800 800 800 801 801 802 803 803 804 805 806 806 807 808 808 809 810 810 811 812 812 812 812 812 813 813 814 814 814 814 814 814 814 814 813 813 813 813 813 813 813 813 813 812 811
777 777 778 779 781 782 782 783 784 784 785 785 786 787 789 790 792 793 794 795 796 797 798 798 799 799 800 800 801 802 802 803 804 805 805 806 806 807 808 809 809 810 810 811 811 811 811 812 812 813 813 813 813 813 813 813 813 812 812 812 812 812 812 812 812 811 811 810 809
776 777 778 780 782 783 783 783 783 784 784 785 786 787 788 790 791 792 793 794 795 796 797 798 798 799 799 800 801 802 803 803 804 805 805 805 806 806 807 808 809 810 810 810 810 811 811 811 811 812 812 812 812 812 812 811 811 811 811 811 811 810 810 810 810 809 809 808 807
776 777 779 781 783 784 784 783 783 783 784 785 786 787 788 790 790 791 792 793 794 795 796 797 798 798 799 800 801 802 803 804 804 804 805 805 805 806 807 808 808 809 809 810 810 810 810 810 810 810 810 810 810 810 811 811 811 810 810 810 809 809 808 808 807 807 806 806 805
778 779 780 782 783 784 784 783 783 783 784 785 787 788 790 790 791 791 792 792 793 793 794 796 797 798 800 801 802 802 803 803 803 804 804 805 805 806 807 807 808 808 809 809 809 810 810 810 810 810 809 809 809 810 810 810 810 809 809 808 808 807 806 806 805 805 804 804 803
780 780 781 782 783 783 783 783 784 784 785 787 788 790 791 791 791 791 791 792 792 793 794 796 798 799 800 801 801 802 802 803 803 803 804 804 805 805 806 807 807 808 808 809 809 809 809 809 809 809 809 809 809 809 809 809 808 808 808 807 806 805 805 804 804 804 803 803 802
780 780 780 781 782 783 784 784 785 786 787 788 790 791 792 792 791 791 791 791 792 792 794 796 798 799 800 800 801 801 802 802 802 803 803 804 804 805 805 806 807 808 808 808 809 809 809 809 809 809 809 808 808 808 808 808 807 807 806 806 805 805 804 803 803 803 802 802 801
778 778 778 780 782 783 785 785 786 787 787 789 790 792 793 793 792 792 791 792 792 793 794 796 797 798 799 800 800 801 801 801 802 802 803 804 804 805 805 806 807 808 808 808 808 809 809 809 809 808 808 808 808 808 807 807 806 806 805 805 804 804 803 803 802 802 801 801 801
777 777 779 781 782 783 784 785 786 786 787 788 790 791 792 793 793 793 792 792 793 793 794 795 797 798 799 800 800 800 801 801 802 803 803 804 804 805 806 806 807 807 808 808 808 808 808 808 808 808 808 807 807 807 806 806 805 805 804 803 803 802 802 801 801 801 800 800 800
777 779 780 781 782 783 784 785 786 786 787 788 789 790 791 792 793 793 793 793 793 794 795 795 796 797 798 799 800 800 801 801 802 803 803 804 805 805 806 806 807 807 807 808 808 808 808 808 808 807 807 806 806 805 805 804 804 803 802 802 801 801 801 800 800 800 800 799 799
778 780 781 781 782 783 784 785 786 786 787 788 788 789 790 791 791 792 792 792 793 794 794 795 796 797 798 799 800 800 801 802 802 803 803 804 804 805 805 806 806 806 807 807 807 807 807 807 806 806 805 805 805 804 803 803 802 801 801 800 800 800 800 799 799 799 798 798 798
778 780 781 782 783 784 785 785 786 786 787 787 788 789 789 790 790 791 791 792 793 793 794 795 796 797 798 799 800 800 801 801 802 803 803 804 804 805 805 805 805 806 806 806 806 806 806 805 805 805 804 804 803 803 802 801 801 800 800 800 799 799 799 798 798 798 798 797 797
780 781 782 783 784 785 785 785 786 786 787 787 788 788 789 789 790 790 791 792 792 793 794 795 796 797 798 798 799 800 800 801 802 802 803 803 804 804 804 805 805 805 805 805 805 805 805 804 804 803 803 802 802 801 801 800 800 799 799 799 798 798 798 798 797 797 797 796 796
780 782 783 784 784 785 785 785 786 786 787 787 788 788 788 789 790 790 791 792 792 793 794 795 796 796 797 798 798 799 800 800 801 802 802 803 803 803 804 804 804 804 804 804 804 804 803 803 803 802 802 802 801 801 800 800 799 799 798 798 798 797 797 797 797 796 796 795 795
781 782 783 783 784 784 785 785 785 786 786 787 787 788 788 789 790 790 791 792 792 793 794 795 795 796 797 797 798 799 800 800 801 801 802 802 803 803 803 803 803 803 803 803 803 803 802 802 802 801 801 801 800 800 800 799 799 798 798 797 797 797 796 796 796 796 795 795 794
781 781 782 783 783 783 784 785 785 785 786 787 787 788 788 789 790 790 791 792 793 793 794 795 795 796 797 797 798 799 799 800 801 801 802 802 802 803 803 803 803 802 802 802 802 802 801 801 801 800 800 800 800 799 799 799 798 798 797 797 797 796 796 795 795 795 794 794 793
780 781 782 782 783 783 784 785 785 786 786 787 788 788 789 789 790 791 792 792 793 794 794 795 795 796 797 797 798 798 799 800 800 801 801 802 802 802 802 802 802 802 801 801 801 801 801 800 800 800 799 799 799 799 798 798 798 797 797 796 796 795 795 794 794 794 793 793 793
781 781 782 782 783 784 784 785 785 786 787 787 788 789 789 790 790 791 792 793 793 794 795 795 796 796 797 797 798 798 799 799 800 800 801 801 801 801 801 801 801 801 801 801 800 800 800 800 800 800 799 799 798 798 798 797 797 797 796 796 795 795 794 794 793 793 792 792 792
781 782 782 783 783 784 785 785 786 787 787 788 789 789 790 790 791 792 792 793 794 794 795 795 796 796 797 797 798 798 799 799 799 800 800 800 800 800 800 800 800 800 800 800 800 800 800 800 799 799 799 798 798 797 797 797 796 796 796 795 795 794 794 793 793 792 792 791 791
781 782 783 783 784 785 785 786 787 787 788 789 789 790 790 790 791 792 792 793 794 794 795 795 796 796 797 797 798 798 798 798 799 799 799 799 799 799 799 799 799 799 799 799 799 799 799 799 799 798 798 798 797 796 796 796 795 795 795 795 794 794 793 793 793 792 792 791 791
782 782 783 784 784 785 786 786 787 788 788 789 790 790 790 791 791 792 792 793 794 794 795 795 795 796 796 797 797 797 797 798 798 798 798 798 798 798 798 798 798 799 799 799 799 799 799 798 798 798 797 797 796 796 796 795 795 795 794 794 793 793 793 793 792 792 791 791 790
782 783 783 784 785 785 786 787 787 788 788 789 790 790 791 791 791 792 793 793 793 794 794 795 795 795 796 796 796 796 797 797 797 797 797 797 797 797 797 798 798 798 798 798 798 798 798 798 797 797 796 796 795 795 795 795 794 794 794 793 793 793 792 792 792 791 791 790 790
782 783 783 784 785 785 786 787 787 788 788 789 790 790 791 791 792 792 793 793 793 794 794 794 795 795 795 795 795 795 796 796 796 796 796 796 796 797 797 797 798 798 798 798 798 798 797 797 796 796 796 795 795 795 794 794 794 793 793 793 792 792 792 791 791 791 791 790 790
782 783 784 784 785 786 786 787 788 788 788 789 790 790 791 791 791 792 792 793 793 793 793 794 794 794 794 795 795 795 795 795 795 796 796 796 796 796 796 797 797 797 797 797 797 797 797 796 796 795 795 795 794 794 794 793 793 793 792 792 791 791 791 791 791 790 790 790 789
783 783 784 785 785 786 787 787 788 788 788 789 790 790 790 791 791 792 792 792 793 793 793 793 793 794 794 794 794 795 795 795 795 795 795 795 796 796 796 796 797 797 797 797 797 796 796 795 795 795 794 794 794 793 793 793 792 792 791 791 791 790 790 790 790 790 790 789 789
783 784 784 785 785 786 787 787 788 788 788 789 789 790 790 790 791 791 792 792 792 793 793 793 793 793 794 794 794 794 795 795 795 795 795 795 795 795 796 796 796 796 796 796 796 796 795 795 795 794 794 793 793 793 792 792 791 791 790 790 790 790 790 790 790 789 789 789 789
783 784 784 785 785 786 786 787 787 788 788 788 789 789 790 790 790 791 791 792 792 792 792 793 793 793 793 794 794 794 794 794 794 795 795 795 795 795 795 795 795 796 796 796 795 795 795 794 794 794 793 793 792 792 791 791 790 790 789 789 789 789 789 789 789 789 789 789 789
783 784 784 785 785 786 786 786 787 787 788 788 788 789 789 790 790 790 791 791 791 791 792 792 793 793 793 793 794 794 794 794 794 794 794 795 795 795 795 795 795 795 795 795 795 795 794 794 794 793 793 792 791 791 791 790 790 789 789 788 788 788 788 788 788 788 788 788 788
783 783 784 784 785 785 785 786 786 787 787 788 788 788 789 789 789 790 790 790 791 791 791 792 792 793 793 793 793 793 793 794 794 794 794 794 794 794 794 795 795 795 795 795 795 794 794 793 793 793 792 791 791 790 790 789 789 788 788 788 788 788 788 788 788 788 788 788 788
782 783 783 784 784 784 785 785 785 786 786 787 787 788 788 788 789 789 790 790 790 791 791 791 792 792 792 793 793 793 793 793 793 793 794 794 794 794 794 794 794 794 794 794 794 794 793 793 793 793 792 791 790 790 790 789 789 788 788 787 787 787 787 787 787 788 788 788 788
782 783 783 783 783 784 784 784 785 785 786 786 787 787 788 788 788 789 789 790 790 790 790 791 791 792 792 792 792 792 792 793 793 793 793 793 794 794 794 794 794 794 794 794 794 793 793 793 793 792 792 791 790 790 789 789 788 788 788 787 787 787 787 787 787 787 787 787 788
781 782 782 783 783 783 783 784 784 785 785 786 786 787 787 788 788 788 789 789 790 790 790 790 791 791 791 791 791 792 792 792 792 793 793 793 793 793 793 793 793 793 793 793 793 793 793 793 792 792 792 791 790 790 789 789 788 788 787 787 787 786 786 786 786 786 787 787 787
Wind_Speed
25 26 28 29 29 29 29 28 26 24 22 20 18 16 14 14 13 13 12 12 11 11 11 10 10 10 10 9 9 9 8 8 7 7 7 7 7 7 7 8 8 8 8 9 9 9 9 10 10 10 11 11 12 12 13 13 14 14 14 13 14 14 15 16 18 19 21 21 20
22 24 26 27 28 28 28 27 24 22 20 18 16 14 13 13 13 12 12 11 10 10 10 10 10 10 10 10 10 10 9 9 8 8 8 8 8 8 7 7 7 7 7 7 7 8 9 10 10 10 11 11 12 14 15 16 16 17 17 17 17 16 17 17 19 20 21 22 21
22 22 23 23 24 25 26 25 23 21 19 17 14 13 12 11 12 12 11 10 10 10 10 10 10 10 11 10 10 10 10 9 9 9 8 8 8 7 7 7 6 6 6 6 7 8 9 10 10 11 12 13 14 15 16 17 18 18 19 20 20 20 20 20 21 21 22 21 21
21 21 20 21 22 23 23 22 20 19 18 16 14 12 11 10 10 11 10 10 10 10 10 10 10 10 10 10 9 10 10 10 10 9 8 8 7 7 6 6 7 7 7 8 9 10 10 11 12 12 13 14 15 16 17 18 19 20 21 21 22 22 22 23 23 23 23 23 22
22 21 21 21 22 22 21 17 16 17 17 15 13 12 11 10 10 10 10 10 10 10 10 10 10 9 9 9 9 9 9 9 9 9 8 7 7 7 8 8 9 10 10 11 12 13 13 14 15 15 16 17 18 19 20 21 21 22 23 23 24 24 24 23 24 24 24 24 24
24 23 23 23 24 22 19 15 15 15 15 14 13 12 11 11 11 11 11 11 11 11 10 10 9 9 8 8 8 9 9 9 8 8 7 7 8 8 9 10 11 12 13 13 14 15 16 17 18 19 20 21 22 22 23 24 24 25 26 26 26 25 24 24 24 24 24 24 24
25 25 25 24 23 21 19 17 16 14 13 13 12 12 12 12 11 11 11 11 11 11 10 10 9 9 9 9 9 9 8 8 7 7 7 8 8 9 10 11 12 13 13 14 16 16 17 18 20 21 22 23 24 25 26 27 28 28 27 26 26 25 24 24 24 24 24 24 24
24 24 24 23 21 21 21 20 16 13 13 12 12 12 11 11 11 11 11 11 11 10 10 10 9 9 9 9 8 8 7 7 7 8 8 9 10 11 12 13 13 14 14 15 16 17 18 19 21 23 24 25 26 27 28 28 27 26 25 25 25 25 25 25 25 25 25 25 25
21 21 21 21 20 21 22 20 15 13 13 13 12 12 11 11 11 11 11 11 10 10 10 10 10 9 9 9 8 7 7 8 9 10 10 11 11 12 13 14 14 15 15 15 16 17 18 19 21 23 24 24 25 25 25 25 24 24 24 25 26 26 26 26 26 26 26 26 26
20 20 20 20 20 20 19 17 14 14 14 14 13 13 12 11 11 11 11 10 10 9 9 9 9 9 9 9 9 9 10 11 11 12 12 12 12 12 13 13 14 14 14 15 16 17 18 19 20 20 21 22 21 21 22 22 23 24 25 26 27 27 27 27 27 26 26 26 27
20 20 20 19 19 19 17 16 16 16 15 15 14 13 12 11 11 10 10 9 8 7 7 8 8 8 8 9 9 10 11 12 13 13 13 12 12 12 12 13 13 14 14 15 16 16 17 18 18 19 19 19 20 20 21 23 23 24 25 27 27 28 28 28 27 27 26 26 26
18 18 18 17 17 17 18 18 18 17 16 15 13 12 11 11 10 9 9 7 6 5 5 5 6 6 7 8 9 9 10 11 11 11 11 11 11 11 12 12 13 13 14 14 15 16 17 18 18 19 19 20 20 21 22 23 23 24 25 26 26 26 26 26 25 24 23 23 23
14 15 16 17 18 19 19 19 18 16 15 13 12 10 10 9 9 8 7 6 4 3 3 3 4 5 6 7 8 9 9 9 10 10 10 10 10 11 12 12 13 14 15 15 16 17 18 19 19 19 20 20 21 21 21 21 21 21 21 22 21 21 21 21 20 19 19 19 19
14 16 19 20 20 20 18 16 15 13 12 10 9 9 9 8 8 7 6 5 4 3 3 5 6 6 7 8 9 9 9 9 9 9 9 10 11 11 12 13 14 15 16 16 17 18 18 17 18 18 19 20 20 19 18 18 17 17 17 17 18 17 17 16 16 16 15 16 17
18 20 21 20 18 15 12 11 10 9 9 8 8 9 9 9 8 6 6 5 4 4 5 8 9 9 9 9 8 8 8 8 8 9 9 10 11 12 12 13 14 14 14 14 14 14 14 14 15 16 16 17 16 16 15 14 14 15 15 16 16 16 16 16 15 15 15 15 16
19 18 16 14 11 9 9 9 10 9 9 8 8 9 8 8 7 6 6 6 6 7 8 9 9 9 8 7 7 7 8 8 8 8 9 9 10 10 10 11 11 10 10 10 10 10 10 11 12 13 13 14 14 14 14 14 14 15 15 16 16 17 17 17 16 16 16 15 16
15 12 10 9 10 11 11 11 10 9 9 8 8 8 8 8 8 8 8 8 8 9 9 9 8 6 6 6 6 7 7 7 7 7 7 7 7 7 7 7 6 6 6 6 7 8 9 10 10 11 12 12 13 14 14 15 15 15 16 16 16 17 17 17 17 17 17 16 16
10 8 9 11 12 12 11 10 10 9 9 9 10 9 9 9 9 9 8 8 8 7 7 5 5 4 5 5 6 6 6 6 5 5 5 4 4 4 4 4 4 4 5 6 7 8 8 9 10 11 11 12 13 14 15 16 16 16 16 16 17 17 17 17 17 17 17 17 16
8 9 10 10 9 9 9 10 10 10 11 11 12 12 11 11 10 9 8 7 6 5 4 3 3 4 4 4 4 4 4 3 3 3 3 3 4 4 4 4 4 4 5 6 7 7 8 9 10 11 12 13 13 14 15 16 16 17 17 17 17 16 16 16 16 17 17 17 17
10 10 10 9 10 10 11 11 12 12 12 13 13 12 11 10 9 7 6 5 4 3 2 3 3 3 3 3 3 3 3 3 3 3 4 4 5 5 6 5 5 5 5 6 7 8 9 10 11 11 12 13 14 14 15 16 16 16 16 16 16 16 15 16 16 17 18 18 18
11 11 11 11 11 12 12 12 12 12 12 12 11 10 9 8 7 6 4 3 2 2 2 3 3 3 3 3 3 3 4 4 4 4 5 5 6 6 6 5 5 5 5 6 7 9 10 11 12 12 13 13 14 14 15 15 15 15 14 14 15 15 15 16 17 17 18 17 17
14 14 13 12 11 11 11 11 10 10 10 10 9 8 7 6 6 5 4 3 2 2 2 3 4 4 4 4 4 4 4 4 4 5 5 5 5 5 5 4 4 5 6 7 9 10 11 12 12 13 13 14 14 15 15 15 14 13 13 13 13 14 14 14 15 15 15 15 15
14 13 12 10 10 9 9 9 9 9 9 8 8 7 6 6 5 4 3 3 3 3 3 4 4 4 4 5 5 4 4 4 4 4 4 4 4 4 3 3 4 5 6 8 9 11 11 12 12 12 13 13 14 14 15 14 13 13 12 12 12 12 12 12 12 12 13 13 14
12 11 10 9 9 8 8 8 8 8 8 8 7 6 6 5 4 4 3 3 3 4 4 5 5 5 5 5 4 3 3 2 3 3 2 2 2 3 3 4 5 6 7 9 10 11 11 12 12 12 12 12 12 13 13 13 12 12 12 12 12 12 11 11 11 11 12 13 14
10 9 9 8 8 8 8 8 8 8 8 7 6 6 5 5 4 4 4 4 4 5 5 5 6 5 4 3 3 2 3 3 3 3 3 2 3 4 4 5 6 7 8 9 10 11 11 11 11 11 11 11 11 11 11 11 11 12 12 12 12 12 12 12 12 12 13 14 15
9 8 8 8 8 8 8 8 8 8 7 7 6 5 5 5 4 4 4 4 4 4 4 4 4 3 2 1 1 1 2 3 4 4 4 4 5 5 6 6 7 7 8 9 9 10 10 10 9 9 10 11 11 11 11 11 11 11 12 12 12 13 13 13 14 14 14 14 15
9 9 8 8 8 8 8 8 8 8 7 6 6 5 4 4 4 4 4 4 4 4 4 3 2 1 1 1 1 2 2 3 4 5 5 6 6 7 7 7 7 7 8 8 8 9 9 9 8 8 9 11 12 12 12 12 12 12 12 13 13 13 14 14 15 15 15 15 15
9 9 9 9 9 9 9 9 8 8 7 5 4 3 3 4 5 5 5 5 5 4 4 3 2 1 1 2 2 3 3 4 4 5 6 6 7 7 7 7 7 6 7 7 7 8 8 8 8 8 9 10 12 12 13 13 13 13 13 13 14 14 14 14 15 15 15 15 15
9 10 10 10 10 10 9 9 8 6 5 3 2 2 3 4 5 5 5 5 5 4 3 3 2 1 1 2 2 2 3 4 5 5 6 6 7 7 7 6 6 6 6 6 7 7 7 8 8 9 9 10 11 13 13 14 14 14 14 14 14 14 14 14 15 15 15 15 15
9 10 10 10 10 9 8 7 6 4 3 2 3 4 5 5 4 4 3 3 3 3 2 2 2 2 2 2 2 2 3 4 5 6 7 7 7 7 7 6 6 6 6 6 6 6 7 8 9 10 10 10 11 13 14 15 15 15 15 15 15 15 14 14 15 15 15 15 15
9 9 9 9 9 8 7 6 4 3 3 4 5 6 6 5 4 4 3 2 2 2 2 2 2 3 3 3 3 3 4 4 6 7 8 8 8 8 7 6 6 6 6 7 7 7 7 8 10 11 12 12 13 14 15 16 16 16 16 16 15 15 15 15 14 15 15 14 14
8 8 8 8 8 7 6 4 3 3 4 5 6 6 6 6 5 4 4 3 3 3 3 3 4 4 4 4 4 4 5 5 6 7 8 8 8 8 7 7 7 6 7 7 7 7 8 9 11 12 12 12 13 15 15 16 16 16 16 16 15 15 15 14 14 14 14 13 13
7 7 7 7 7 6 5 3 3 4 5 6 6 6 6 5 5 4 3 4 4 4 4 4 4 4 4 4 5 5 6 7 7 8 8 8 7 7 7 7 7 6 7 7 8 8 9 10 11 11 12 13 14 15 15 15 16 16 16 16 15 14 14 14 14 14 13 12 11
7 7 7 7 6 6 5 4 5 5 6 6 6 6 6 5 5 4 4 4 5 5 4 4 4 4 4 5 6 7 7 8 8 8 8 7 7 7 7 7 7 7 7 8 9 9 10 11 11 11 12 13 13 14 14 14 15 16 16 16 15 14 14 14 14 13 13 11 10
7 8 8 8 7 6 6 6 6 6 6 6 6 6 6 6 5 5 5 5 5 5 4 4 4 4 5 6 7 7 8 8 8 8 8 7 8 8 8 8 7 7 8 9 10 10 11 11 11 11 12 13 13 14 14 15 16 17 16 15 14 13 13 13 13 13 12 10 9
7 8 9 9 8 8 7 7 7 7 6 6 7 7 7 7 6 6 6 6 6 5 5 5 5 5 6 7 8 8 8 8 8 8 7 8 8 9 9 9 8 8 9 10 11 11 11 11 11 11 12 13 14 15 16 16 17 16 16 14 13 12 12 12 12 12 11 9 8
8 9 9 9 9 9 8 8 8 7 7 7 7 8 8 8 7 7 7 7 7 7 7 6 7 7 8 8 9 9 8 8 8 8 8 8 9 10 10 10 9 9 10 10 11 11 12 11 11 12 13 14 15 16 16 16 16 15 14 13 12 12 12 12 12 11 10 8 7
8 9 10 10 10 10 10 9 9 8 8 8 8 8 9 8 8 8 8 7 8 8 8 8 8 9 9 9 9 8 8 7 7 8 8 9 9 10 10 10 10 10 11 11 11 11 11 11 11 12 12 14 15 15 16 16 15 14 13 13 12 12 11 11 11 11 9 8 7
8 9 10 11 11 11 11 10 10 9 9 9 9 9 9 9 9 8 8 8 8 9 9 9 9 10 10 9 8 8 8 8 8 8 9 10 10 11 11 11 11 11 12 12 11 11 10 11 11 11 12 13 14 15 15 15 15 14 13 12 12 11 11 11 11 11 10 9 8
8 9 10 11 12 12 12 11 10 10 9 9 9 10 10 9 9 8 8 9 9 10 10 10 10 10 10 9 8 8 8 8 8 9 10 11 11 11 11 12 12 12 12 12 11 10 10 10 11 11 11 13 14 15 15 15 14 14 13 12 12 11 11 11 11 10 10 10 9
9 10 10 11 12 13 12 12 11 11 11 10 10 10 10 9 9 9 9 9 9 10 10 11 11 10 10 9 8 8 8 8 9 9 10 11 12 12 12 12 13 13 13 12 11 10 10 10 11 11 11 12 14 14 14 14 13 13 12 12 12 11 11 11 10 10 10 10 10
Wind_Direction
206 208 208 207 205 202 201 200 200 200 201 203 206 208 210 209 204 200 200 201 199 196 194 195 195 193 192 195 200 201 199 197 194 194 196 200 204 209 214 217 221 225 229 237 244 252 260 267 272 276 281 285 289 290 290 289 285 281 276 273 272 274 277 280 279 278 278 277 275
206 207 206 204 202 200 197 196 195 194 195 196 198 201 203 203 202 202 202 202 200 200 200 201 202 200 199 202 208 211 211 210 209 208 206 205 207 209 210 212 217 223 231 241 252 261 268 273 277 281 287 294 299 301 299 297 294 289 284 280 277 278 280 281 278 276 275 275 276
210 210 208 204 200 197 194 191 189 188 187 187 189 193 198 203 207 209 208 207 208 208 208 209 207 206 206 208 215 219 221 222 220 216 212 210 211 212 215 219 225 234 244 255 265 271 276 280 283 286 289 294 297 297 295 293 290 287 284 281 277 274 272 269 267 267 267 268 270
210 211 209 204 199 194 190 187 185 184 183 182 183 187 194 202 209 211 212 212 211 211 210 209 206 206 207 211 217 223 227 228 224 218 213 213 216 223 231 239 248 256 264 271 277 280 282 285 286 287 289 289 289 288 287 284 282 280 278 276 273 269 266 264 263 264 265 266 267
208 210 209 204 197 192 191 194 196 191 184 181 181 185 193 200 205 208 208 207 203 202 201 200 199 200 205 210 214 218 221 221 219 217 218 224 233 242 252 260 265 270 274 278 281 284 286 288 289 290 289 288 287 285 283 281 279 277 276 274 271 269 267 266 267 268 269 270 269
206 209 210 206 199 197 201 209 209 198 187 183 183 187 192 197 200 201 200 198 197 195 194 193 195 198 202 206 209 211 213 213 215 218 225 235 245 254 262 268 272 274 276 279 282 284 287 289 291 291 289 287 286 285 284 283 281 279 277 274 272 271 271 272 273 273 274 273 273
210 208 207 205 204 207 214 220 212 199 188 186 186 188 192 196 197 197 197 198 197 194 193 193 194 197 201 203 206 211 217 222 227 232 238 245 253 259 265 270 273 276 277 279 281 283 285 287 289 288 287 286 285 285 284 283 281 278 275 273 272 273 274 276 276 277 277 277 278
221 215 213 213 215 218 220 221 210 196 188 186 185 188 193 195 197 198 200 200 198 195 195 194 194 197 200 203 208 217 231 243 252 257 260 262 264 266 269 272 276 278 279 278 278 279 280 281 282 282 282 282 281 280 278 277 275 273 272 272 273 274 275 276 277 278 278 279 280
229 225 224 224 224 224 222 217 206 194 188 184 183 186 191 195 198 201 202 202 202 201 199 197 198 201 205 210 219 232 248 262 270 272 272 273 273 273 274 276 278 278 278 276 275 275 275 275 275 276 276 276 274 272 271 270 270 270 271 272 273 273 273 274 274 275 277 277 278
231 230 230 229 228 223 216 206 196 190 186 182 181 184 189 195 200 203 205 207 209 208 207 209 212 216 221 227 237 248 257 265 270 273 274 274 275 276 278 279 280 280 278 275 273 273 272 272 271 270 268 268 268 268 269 269 271 272 273 273 273 273 272 272 272 273 274 275 276
232 233 231 227 223 217 208 193 185 183 182 181 181 184 190 196 200 203 205 208 210 215 221 228 234 239 244 250 255 258 260 262 263 265 268 272 275 278 279 280 279 278 275 273 271 270 269 268 267 266 266 267 268 270 272 273 274 275 274 274 274 274 273 273 274 274 275 276 276
230 229 224 216 211 205 196 185 180 179 180 181 183 186 191 195 198 200 200 202 206 218 234 244 251 258 263 263 260 256 252 251 252 256 262 269 273 276 276 275 274 272 271 270 269 268 268 268 269 270 270 271 273 274 275 276 277 277 276 276 276 276 276 277 277 278 279 279 279
212 209 204 199 195 190 185 178 176 176 178 181 184 187 191 193 195 196 196 198 205 217 235 255 265 265 258 249 241 236 235 238 244 251 259 264 268 270 271 271 271 271 271 271 270 270 270 271 272 273 274 274 275 276 277 279 280 280 281 281 281 281 281 282 284 284 284 283 281
185 180 178 176 176 177 177 176 174 174 176 180 186 193 198 200 198 199 203 211 214 217 234 257 260 248 235 227 225 227 232 239 246 253 258 263 266 268 270 271 272 272 272 272 272 272 272 273 274 274 275 277 278 280 282 284 286 287 288 290 291 291 291 291 291 291 289 286 284
165 163 165 167 170 175 183 193 192 189 187 190 198 204 206 203 198 202 212 218 211 211 228 242 237 229 224 224 229 237 244 251 256 261 265 268 270 271 272 272 273 273 273 272 272 273 274 276 278 280 282 285 287 290 291 293 293 293 294 295 296 297 297 297 296 294 291 289 289
162 164 169 176 185 198 210 215 215 210 203 197 197 198 197 193 191 195 202 203 199 198 203 213 213 216 224 233 244 253 260 266 270 272 274 274 274 274 273 273 273 273 273 273 275 278 282 285 287 290 293 295 296 296 296 295 294 293 292 293 294 295 295 295 294 292 291 289 291
173 180 191 207 219 223 223 219 211 202 194 186 183 181 181 183 186 187 189 190 190 190 191 196 205 218 235 251 261 268 273 277 278 277 276 274 272 271 271 271 273 276 278 279 283 287 289 289 291 294 295 295 295 294 293 291 290 289 289 289 290 290 290 291 291 291 291 291 291
183 200 219 224 224 218 209 203 194 186 181 177 176 177 180 183 185 183 181 181 181 181 185 194 212 233 251 263 269 273 275 275 274 269 265 260 257 257 258 261 270 281 287 289 291 291 290 289 292 294 294 294 293 292 291 289 287 286 286 286 286 287 288 289 291 293 295 296 295
201 217 220 210 200 190 182 178 177 176 174 175 176 176 177 179 180 179 176 173 175 180 191 211 234 247 252 256 259 260 257 252 247 242 238 236 237 239 240 243 258 276 284 287 289 291 293 294 296 297 296 296 296 295 293 291 289 288 287 287 289 291 293 296 298 299 299 299 298
204 209 203 185 178 175 173 172 170 169 169 171 172 172 171 172 175 175 173 173 181 198 218 232 233 230 225 222 221 221 219 219 221 227 234 238 241 243 243 244 253 264 273 279 286 291 296 298 299 298 298 300 301 301 300 299 296 294 293 293 295 297 299 300 299 298 296 295 295
181 181 180 176 177 175 171 168 165 164 164 166 168 169 170 172 175 178 181 190 207 227 231 221 204 193 190 193 200 210 217 224 231 239 247 252 254 255 253 254 259 268 280 290 297 300 300 299 299 300 302 306 308 309 308 306 303 300 297 295 294 294 294 293 292 293 294 296 297
170 171 173 174 174 171 168 165 164 165 166 167 170 173 175 179 183 189 200 214 231 233 217 198 187 186 190 199 211 222 231 238 246 253 259 264 266 265 264 266 275 289 300 304 304 302 300 299 299 301 305 310 312 313 311 309 306 303 300 297 294 292 291 292 294 298 303 307 309
172 173 173 173 172 170 169 168 169 170 172 173 175 178 182 186 193 203 215 228 232 222 207 197 194 198 207 216 224 232 242 254 263 269 273 276 277 279 282 289 300 308 309 307 304 302 301 300 300 301 304 308 310 310 309 309 308 307 306 304 301 300 299 302 306 310 314 315 314
174 175 174 173 173 172 173 174 175 176 177 178 180 184 189 195 204 214 224 231 228 220 213 210 212 219 229 239 245 253 268 288 298 303 303 304 308 312 316 319 319 316 312 309 307 306 304 304 303 303 303 303 303 304 306 308 311 312 313 312 310 308 309 311 314 316 316 315 315
175 176 176 175 174 175 177 180 180 180 181 183 188 193 200 206 215 223 228 229 227 224 223 226 234 243 257 277 295 303 303 302 306 313 319 327 329 330 329 328 324 319 315 313 312 312 312 311 310 309 307 304 303 304 307 311 315 317 317 316 315 315 315 317 318 319 319 319 319
176 177 178 178 179 181 183 185 184 183 185 190 196 201 207 214 219 222 222 222 222 223 228 235 249 263 288 321 325 304 285 280 283 287 295 305 312 316 318 318 317 317 317 317 319 320 320 322 322 319 314 310 308 308 310 314 318 320 320 319 318 319 320 322 322 322 321 320 320
178 179 180 182 184 186 187 188 188 187 189 193 198 204 213 223 227 227 224 222 221 224 227 233 238 246 261 259 247 248 253 262 268 272 278 285 292 298 303 305 309 311 315 320 323 325 328 330 328 321 313 309 307 307 308 312 317 320 321 321 321 322 323 323 323 322 320 318 318
180 181 183 185 185 186 188 189 189 188 189 192 199 217 246 263 267 263 253 243 236 233 230 227 227 236 255 251 245 247 254 261 264 267 270 276 285 294 300 304 306 309 314 320 323 327 329 329 324 317 310 305 304 305 306 310 315 318 320 321 321 321 321 321 320 319 318 316 315
182 183 184 184 183 184 186 187 185 185 188 198 230 276 297 302 302 291 272 256 249 243 235 228 237 256 256 239 241 247 257 266 269 272 277 286 295 304 309 311 311 311 314 316 318 322 325 323 317 313 310 307 305 306 308 311 314 317 319 319 319 319 319 318 317 316 315 314 313
184 184 184 183 183 183 183 181 181 186 206 245 274 290 301 307 313 310 292 266 257 254 244 230 232 231 227 227 237 251 268 279 283 286 291 299 307 314 319 320 319 316 315 313 312 315 317 317 313 312 311 310 307 307 309 311 313 315 316 317 317 316 316 315 314 313 312 312 311
183 184 184 184 183 182 180 179 183 205 245 267 276 282 286 292 296 296 290 277 275 276 265 237 226 226 229 234 244 260 275 287 292 296 301 307 313 320 325 328 326 322 317 312 309 310 312 313 312 312 312 309 307 306 307 308 309 311 312 313 314 313 313 312 311 310 310 310 309
184 186 188 187 186 184 183 184 198 236 265 274 275 274 276 279 282 280 275 269 274 273 260 243 238 237 239 246 260 277 289 295 297 299 303 308 314 319 324 326 325 321 315 310 307 308 309 309 310 310 309 306 305 305 305 305 305 306 307 308 309 310 309 308 308 307 307 307 305
189 192 194 194 193 192 194 204 233 263 276 278 274 270 269 273 276 274 269 267 271 269 263 258 261 267 276 289 301 306 306 302 301 301 304 309 312 314 317 318 318 316 312 308 306 305 305 306 307 307 305 302 302 303 303 303 303 304 304 305 306 306 306 305 305 305 305 304 301
198 201 202 202 202 204 213 233 257 273 279 277 270 265 265 269 273 273 272 273 276 275 271 270 278 288 297 302 305 305 303 301 300 303 306 310 311 311 312 314 315 313 310 307 304 303 301 301 303 303 301 300 301 302 303 304 304 305 304 304 304 304 304 303 302 302 302 301 298
208 210 210 210 211 217 230 247 263 274 279 273 266 262 262 267 270 272 273 274 276 276 275 273 276 281 284 285 286 288 292 295 299 304 309 312 311 311 311 311 312 312 310 308 304 301 299 299 301 300 300 300 302 305 307 308 308 307 305 304 303 302 301 300 299 299 299 298 294
218 218 218 218 221 228 240 254 267 277 280 273 265 262 263 267 270 272 271 271 271 273 275 277 278 280 281 281 281 283 287 293 301 307 311 313 310 308 306 306 307 309 310 309 306 303 301 300 300 300 301 302 305 308 310 310 310 308 306 305 304 302 300 297 296 295 294 293 289
226 225 226 229 234 241 250 261 272 280 282 277 270 266 265 267 269 271 271 271 271 273 276 278 280 280 280 278 279 281 286 296 303 307 309 309 305 302 299 299 302 307 311 311 308 304 302 301 300 301 303 306 309 311 312 312 311 310 308 307 305 302 298 295 291 289 288 286 283
235 233 234 238 244 251 258 265 273 279 282 279 274 270 268 268 269 270 271 272 272 273 274 275 276 276 275 275 278 281 286 293 297 300 302 301 298 296 294 296 301 307 311 312 308 304 301 300 300 303 306 309 312 313 314 313 312 311 309 308 306 302 298 293 288 284 280 278 276
243 242 243 245 249 254 258 263 269 275 279 278 275 271 269 268 268 269 271 272 272 272 272 272 272 274 275 277 279 281 284 286 288 291 294 294 293 292 293 296 301 307 311 311 307 302 297 296 298 303 307 310 311 312 312 311 310 308 307 306 305 303 299 293 286 280 275 272 270
244 245 247 250 252 254 257 261 266 271 273 273 271 269 268 267 267 269 271 272 273 273 272 272 273 276 279 281 281 282 284 285 287 289 290 291 291 291 293 297 302 307 309 308 305 300 294 292 296 301 306 308 308 307 307 306 305 305 304 304 305 304 302 297 289 281 274 269 266
249 244 246 252 255 256 258 261 264 267 267 267 266 266 266 266 265 266 267 268 269 271 272 273 274 277 280 281 282 283 285 288 289 290 291 291 291 292 294 298 302 305 306 305 303 298 293 292 295 301 304 306 304 303 302 302 302 301 302 303 304 305 305 302 296 288 279 272 267